Miscellaneous Local Product
Issued by NWS North Platte, NE

Home | Current Version | Previous Version | Graphics & Text | Print | Product List | Glossary On
Versions: 1 2 3 4 5 6 7 8 9 10 11 12 13 14 15 16 17 18 19 20 21 22 23 24 25 26 27 28 29 30 31 32 33 34 35 36 37 38 39 40 41 42 43 44 45 46 47 48 49 50
000
AXUS43 KLBF 240910
MISLBF


WESTERN AND NORTH CENTRAL NEBRASKA HOURLY WEATHER ROUNDUP
NATIONAL WEATHER SERVICE NORTH PLATTE NE
400 AM CDT FRI OCT 24 2014

***STATIONS NOT REPORTING VARIABLES SUCH AS SKY/WEATHER OR
PRESSURE ARE PROVIDED BY THE NEBRASKA DEPARTMENT OF
ROADS...RAWS...AND APRS NETWORKS...AND ARE NOT UNDER
NATIONAL WEATHER SERVICE QUALITY CONTROL***

...OBSERVATIONS IN AND NEAR THE EASTERN PANHANDLE OF NEBRASKA...

CITY           SKY/WX    TMP DP  RH WIND       PRES   REMARKS
PINE RIDGE     MOCLDY    36  33  89 NW3       29.95S
CHADRON        CLOUDY    43  35  73 CALM      29.94S
ALLIANCE       CLOUDY    39  32  76 W7        29.99S WCI  34
SIDNEY         MOCLDY    45  34  65 W9        30.05F
WHITECLAY        N/A     37  31  79 SE6         N/A  WCI  32
RUSHVILLE        N/A     37  32  81 S5          N/A  WCI  34
CRESCENT LAKE    N/A     53  34  48 SW5         N/A
LISCO            N/A     43  35  71 CALM        N/A
BIG SPRINGS      N/A     47  38  71 W5          N/A
LEWELLEN         N/A     42  36  79 CALM        N/A
$$

...OBSERVATIONS IN NORTH CENTRAL NEBRASKA...

CITY           SKY/WX    TMP DP  RH WIND       PRES   REMARKS
VALENTINE      CLOUDY    42  36  79 SW8       29.93S
THEDFORD       PTCLDY    51  38  60 W3        29.96S
AINSWORTH      MOCLDY    47  38  70 SW6       29.92S
O`NEILL        CLOUDY    53  52  97 SW9       29.90F
ORD            MOCLDY    54  51  90 SW6       29.92F
BROKEN BOW     MOCLDY    54  52  93 SW7       29.95S
BROWNLEE         N/A     55  35  46 W3          N/A
SPRINGVIEW       N/A     43  40  88 CALM        N/A
BREWSTER         N/A     54  48  80 CALM        N/A
ROSE             N/A     51  49  93 S5          N/A
NEWPORT          N/A     48  45  90 SW7         N/A
SARGENT          N/A     48  46  93 CALM        N/A
COMSTOCK         N/A     62  58  88 SW12        N/A
CHAMBERS         N/A     54  52  94 S6          N/A
EWING            N/A     54  52  93 CALM        N/A
$$

...OBSERVATIONS IN SOUTHWEST NEBRASKA AND FAR NORTHEAST COLORADO...

CITY           SKY/WX    TMP DP  RH WIND       PRES   REMARKS
WRAY           FAIR      54  39  56 SW12      30.05S
HOLYOKE        FAIR      52  37  58 W7        30.05R
IMPERIAL       CLEAR     48  38  68 W6        30.02S
OGALLALA       PTCLDY    41  36  84 CALM      30.00F
NORTH PLATTE   MOCLDY    47  44  90 NW3       29.99S
MCCOOK         PTCLDY    54  51  90 SW9       30.01S
LEXINGTON      MOCLDY    56  53  89 W8        29.98F
PAXTON           N/A     46  37  72 CALM        N/A
SUTHERLAND       N/A     41  36  81 W9          N/A
BRADY            N/A     51  47  87 CALM        N/A
GOTHENBURG       N/A     56  51  82 CALM        N/A
CALLAWAY         N/A     51  49  94 S5          N/A
$$

...SOME WEATHER OBSERVATIONS FROM AROUND THE REGION...

CITY           SKY/WX    TMP DP  RH WIND       PRES   REMARKS
DENVER         CLOUDY    57  29  34 S9        30.14R
LARAMIE        CLOUDY    50  25  37 VRB3      30.22R
CHEYENNE       CLOUDY    51  28  41 W9        30.16S
SCOTTSBLUFF    CLOUDY    45  38  76 CALM      30.01F
RAPID CITY     MOCLDY    49  31  49 W7        29.90F
PIERRE         MOCLDY    44  35  70 SW7       29.86R
WINNER         FAIR      55  34  45 SW8       29.88S
SIOUX FALLS    MOCLDY    54  50  86 S9        29.85F
OMAHA          PTCLDY    55  52  89 SE8       29.97
GRAND ISLAND   PTCLDY    58  55  90 SW13      29.96F
KANSAS CITY    MOCLDY    55  55 100 S10       30.05F FOG
WICHITA        PTCLDY    57  55  93 S7        30.05F
HAYS           CLEAR     55  52  88 S5        30.02F
LIBERAL        CLEAR     55  50  82 SW5       30.09F
GOODLAND       CLEAR     54  47  77 SW12      30.07F
$$



USA.gov is the U.S. government's official web portal to all federal, state and local government web resources and services.